Regional Weather Roundup
Issued by NWS

Current Version | Previous Version | Text Only | Print | Product List | Glossary Off
Versions: 1 2 3 4 5 6 7 8 9 10 11 12 13 14 15 16 17 18 19 20 21 22 23 24 25 26 27

000
ASUS42 KFFC 012003
RWRGA
WEATHER ROUNDUP FOR GEORGIA
NATIONAL WEATHER SERVICE PEACHTREE CITY GA
400 PM EDT FRI JUL 01 2016

NOTE: "FAIR" INDICATES FEW OR NO CLOUDS BELOW 12,000 FEET WITH NO
SIGNIFICANT WEATHER AND/OR OBSTRUCTIONS TO VISIBILITY.

* = USE WITH CAUTION. THE STATIONS MARKED WITH AN ASTERISK MAY NOT
REPORT WEATHER SUCH AS PRECIPITATION, FOG, OR THUNDER AND ARE NOT
QUALITY CONTROLLED BY NWS.

THE REMARK "TC" DENOTES TEMPERATURE READING IN DEGREES CELSIUS.

GAZ001>058-012100-
NORTH GEORGIA

CITY           SKY/WX    TMP DP  RH WIND       PRES   REMARKS
ATLANTA        MOSUNNY   93  52  24 N12       29.99F HX  90
ATHENS         SUNNY     92  70  48 VRB3      29.97F HX  97
CHAMBLEE       SUNNY     95  53  24 N9        29.98F HX  92
PEACHTREE CITY SUNNY     93  56  28 W6        29.98F HX  91
ROME           SUNNY     94  56  27 VRB3      29.96F HX  92
WEST ATLANTA   SUNNY     92  51  24 W8        29.98F
GAINESVILLE    SUNNY     91  55  29 VRB3      30.00F
CARTERSVILLE   SUNNY     93  56  28 VRB5      29.97F HX  91


CITY           SKY/WX    TMP DP  RH WIND       PRES   REMARKS
DALTON*        SUNNY     90  59  35 NW5       29.98F
LAWRENCEVILLE* SUNNY     91  57  31 W7        30.00F HX  90
MARIETTA       MOSUNNY   91  54  28 W10       29.99F
CANTON*        SUNNY     91  36  14 CALM      30.00F
$$

GAZ059>098-102>109-012100-
CENTRAL GEORGIA

CITY           SKY/WX    TMP DP  RH WIND       PRES   REMARKS
AUGUSTA-BUSH   PTSUNNY   89  71  55 S5        29.95F HX  95
AUGUSTA-DANIEL MOSUNNY   93  68  43 NW3       29.97F HX  97
COLUMBUS       MOSUNNY   92  65  40 VRB5      29.96F HX  94
MACON          MOSUNNY   93  68  43 N7        29.97F HX  97
ROBINS AFB     SUNNY     93  70  46 N7        29.96S HX  99


CITY           SKY/WX    TMP DP  RH WIND       PRES   REMARKS
LAGRANGE*      SUNNY     96  62  32 N7        29.99S HX  96
SYLVANIA*      MOSUNNY   92  71  49 NW5       29.98F HX  98
MILLEDGEVILLE* CLOUDY    90  72  55 CALM      29.97F HX  96
$$

GAZ099>101-110>166-012100-
SOUTH GEORGIA

CITY           SKY/WX    TMP DP  RH WIND       PRES   REMARKS
SAVANNAH       CLOUDY    91  71  51 W6        29.97F HX  97
VALDOSTA       CLOUDY    85  75  72 CALM      30.00F HX  93
ALMA           CLOUDY    77  75  93 SE6       29.98F
ST SIMONS      LGT RAIN  75  73  93 W5        30.02F
FT STEWART     CLOUDY    83  75  77 S6        29.97R HX  90
ALBANY         PTSUNNY   90  71  53 S8        29.99F HX  96
HUNTER AFB     CLOUDY    88  76  69 S3        29.97R HX  99
MOODY AFB      CLOUDY    85  73  68 SW6       29.99F HX  92
BRUNSWICK      CLOUDY    73  73 100 CALM      30.03F


CITY           SKY/WX    TMP DP  RH WIND       PRES   REMARKS
BAINBRIDGE*    CLOUDY    90  73  58 CALM      29.99F HX  98
MOULTRIE*      PTSUNNY   77  73  88 SE5       30.01F
VIDALIA*       PTSUNNY   91  70  49 CALM      29.97F HX  97
WAYCROSS*      CLOUDY    85  77  75 SW7       30.00S HX  95
DOUGLAS*       CLOUDY    81  73  78 W7        30.01S
$$




USA.gov is the U.S. government's official web portal to all federal, state and local government web resources and services.